Regional Weather Roundup
Issued by NWS

Home | Current Version | Previous Version | Graphics & Text | Print | Product List | Glossary On
Versions: 1 2 3 4 5 6 7 8 9 10 11 12 13 14 15 16 17 18 19 20 21 22 23 24 25 26 27 28 29 30 31 32 33 34 35 36 37 38 39 40 41 42 43 44 45 46 47 48 49 50
000
ASUS43 KBIS 291520
RWRND

NORTH DAKOTA REGIONAL WEATHER ROUNDUP
NATIONAL WEATHER SERVICE BISMARCK ND
900 AM CST THU JAN 29 2015

NOTE: "FAIR" INDICATES FEW OR NO CLOUDS BELOW 12,000 FEET WITH NO
SIGNIFICANT WEATHER AND/OR OBSTRUCTIONS TO VISIBILITY.


NDZ001>003-009>011-017-291600-
NORTHWEST NORTH DAKOTA

CITY           SKY/WX    TMP DP  RH WIND       PRES   REMARKS
WILLISTON      MOCLDY    21  17  84 NW6       30.49R WCI  13
MINOT          CLOUDY    19  14  81 NW17      30.46R WCI   4
MINOT AFB      CLOUDY    18  18  98 N20       30.46R WCI   2
$$

NDZ018>021-031>035-040>046-291600-
SOUTHWEST NORTH DAKOTA

CITY           SKY/WX    TMP DP  RH WIND       PRES   REMARKS
BISMARCK       CLOUDY    27  19  72 N20G25    30.46R WCI  13
DICKINSON      PTCLDY    24  19  81 NW13      30.41R WCI  12
GARRISON         N/A     25  20  81 NW17      30.44R WCI  12
HETTINGER ARPT CLOUDY    26  21  81 NW17G25   30.45R WCI  13
$$

NDZ004>008-012>016-024-026-027-054-291600-
NORTHEAST NORTH DAKOTA

CITY           SKY/WX    TMP DP  RH WIND       PRES   REMARKS
GRAND FORKS    CLOUDY    13   6  74 N23G33    30.44R WCI  -6
GRND FRKS AFB  CLOUDY    12   5  73 N16G25    30.45R WCI  -4
DEVILS LAKE    CLOUDY    16   9  73 N22       30.43R WCI  -2
$$

NDZ022-023-025-028>030-036>039-047>053-291600-
SOUTHEAST NORTH DAKOTA

CITY           SKY/WX    TMP DP  RH WIND       PRES   REMARKS
FARGO          CLOUDY    20  12  71 N26       30.40R WCI   2
JAMESTOWN      CLOUDY    20  15  81 NW22G30   30.40R WCI   3
$$



USA.gov is the U.S. government's official web portal to all federal, state and local government web resources and services.